Flag for Angola Weather past 2 weeks in Lubango, Angola

Now
81 °F

Sunny.


Feels Like: 80 °F
Forecast: 57 / 72 °F
Wind: 9 mph from Northeast

Location: Ondangwa


UV Index: 7 (High)

Visibility: 10 mi


Pressure: 30.04 "Hg

Humidity: 39%

Dew point: 54 °F

Location of LubangoLocation

Historic Weather in Lubango

°F

Lubango temperature yesterday

Maximum temperature yesterday: 81 °F (at 12:00 PM)
Minimum temperature yesterday: 68 °F (at 12:00 AM)
Average temperature yesterday: 73 °F

Past Weeks' High & Low Weather Summary

 TemperatureHumidityPressure
High90 °F (Apr 6, 2:00 PM)94% (Apr 12, 2:00 AM)30.18 "Hg (Apr 12, 2:00 AM)
Low59 °F (Apr 11, 6:00 AM)25% (Apr 16, 4:00 PM)29.98 "Hg (Apr 6, 2:00 PM)
Average72 °F63%30.08 "Hg
* Reported Apr 6 11:00 AM — Apr 21 10:00 AM, Lubango, Weather by CustomWeather, © 2014

Note: Actual official high and low records may vary slightly from our data, if they occured in-between our weather recording intervals... More about our weather records

Advertising

Historic Weather Conditions — Data for Previous 24 hours

 ConditionsComfort  
Time TempWeatherWind HumidityBarometerVisibility
10:00 AM
Apr 21
81 °FSunny.9 mph42%30.07 "Hg10 mi
9:00 AM73 °FPartly sunny.9 mph53%30.07 "HgN/A
8:00 AM70 °FPartly sunny.5 mph64%30.07 "HgN/A
7:00 AM66 °FPartly sunny.2 mph78%30.04 "HgN/A
6:00 AM64 °FMild.2 mph78%30.04 "HgN/A
5:00 AM63 °FMild.3 mph83%30.01 "HgN/A
4:00 AM64 °FMild.2 mph78%30.01 "HgN/A
3:00 AM66 °FMild.3 mph73%30.01 "HgN/A
2:00 AM68 °FMild.3 mph69%30.01 "HgN/A
1:00 AM70 °FMild.3 mph64%30.04 "HgN/A
12:00 AM70 °FMild.3 mph64%30.04 "HgN/A
8:00 PM
Apr 20
73 °FMild.1 mph61%30.07 "HgN/A
7:00 PM73 °FMild.2 mph65%30.07 "HgN/A
6:00 PM75 °FMild.2 mph57%30.07 "HgN/A
5:00 PM77 °FWarm.2 mph51%30.04 "HgN/A
3:00 PM81 °FWarm.3 mph42%30.04 "HgN/A
2:00 PM81 °FWarm.7 mph42%30.07 "HgN/A
1:00 PM81 °FWarm.8 mph42%30.07 "HgN/A
12:00 PM81 °FWarm.9 mph42%30.09 "HgN/A
11:00 AM77 °FWarm.10 mph47%30.12 "HgN/A
Weather by CustomWeather, © 2014

See weather overview